Weather History for Creston, IA

Change the Weather History Date:

Tuesday, October 16, 2012

  Actual Average Record
Temperature  
Mean Temperature 62 °F -  
Max Temperature 73 °F 64 °F 82 °F (1953)
Min Temperature 51 °F 40 °F 24 °F (1976)
Degree Days  
Heating Degree Days 3    
Growing Degree Days 12 (Base 50)    
Moisture  
Dew Point 46 °F    
Average Humidity 63    
Maximum Humidity 82    
Minimum Humidity 38    
Precipitation  
Precipitation 0.00 in - - ()
Sea Level Pressure  
Sea Level Pressure 29.59 in    
Wind  
Wind Speed 11 mph (South)    
Max Wind Speed 20 mph    
Max Gust Speed 25 mph    
Visibility 10 miles    
Events      
Averages and records for this station are not official NWS values.
T = Trace of Precipitation, MM = Missing Value Source: NWS Daily Summary

Daily Weather History Graph

Daily Weather History Graph

Search for Another Location

Airport:

Trip Planner

Search our weather history database for the weather conditions in past years. The results will help you decide how hot, cold, wet, or windy it might be!

Date:

Astronomy

Oct. 16, 2012 Rise Set
Actual Time 7:30 AM CDT 6:34 PM CDT
Civil Twilight 7:02 AM CDT 7:02 PM CDT
Nautical Twilight 6:30 AM CDT 7:34 PM CDT
Astronomical Twilight 5:59 AM CDT 8:05 PM CDT
Moon 8:55 AM CDT (10/16) 7:18 PM CDT (10/16)
Length of Visible Light 11h 59m
Length of Day
11h 03m
New Moon, 2% of the Moon is Illuminated
Oct 16
New Moon
Oct 21
First Quarter
Oct 29
Full
Nov 6
Last Quarter
Nov 13
New

Hourly Weather History & Observations

Time (CDT) Temp. Dew Point Humidity Pressure Visibility Wind Dir Wind Speed Gust Speed Precip Events Conditions
12:15 AM 51.8 °F 44.6 °F 76% 29.83 in 10.0 mi SSE 8.1 mph - N/A   Unknown
12:35 AM 51.8 °F 44.6 °F 76% 29.82 in 10.0 mi SSE 9.2 mph - N/A   Unknown
12:55 AM 51.8 °F 44.6 °F 76% 29.81 in 10.0 mi SE 8.1 mph - N/A   Unknown
1:15 AM 51.8 °F 44.6 °F 76% 29.81 in 10.0 mi SSE 10.4 mph - N/A   Unknown
1:35 AM 53.6 °F 44.6 °F 72% 29.80 in 10.0 mi SSE 10.4 mph - N/A   Unknown
1:55 AM 53.6 °F 44.6 °F 72% 29.79 in 10.0 mi SSE 11.5 mph - N/A   Unknown
2:15 AM 53.6 °F 44.6 °F 72% 29.77 in 10.0 mi SSE 11.5 mph - N/A   Unknown
2:35 AM 51.8 °F 44.6 °F 76% 29.75 in 10.0 mi SE 10.4 mph - N/A   Unknown
2:55 AM 51.8 °F 44.6 °F 76% 29.74 in 10.0 mi SE 10.4 mph - N/A   Unknown
3:15 AM 51.8 °F 44.6 °F 76% 29.72 in 10.0 mi SSE 12.7 mph - N/A   Unknown
3:35 AM 51.8 °F 44.6 °F 76% 29.70 in 10.0 mi SSE 12.7 mph - N/A   Unknown
3:55 AM 51.8 °F 44.6 °F 76% 29.69 in 10.0 mi SE 11.5 mph - N/A   Unknown
4:15 AM 51.8 °F 44.6 °F 76% 29.68 in 10.0 mi SSE 11.5 mph - N/A   Unknown
4:35 AM 51.8 °F 44.6 °F 76% 29.68 in 10.0 mi SSE 11.5 mph - N/A   Unknown
4:55 AM 51.8 °F 44.6 °F 76% 29.67 in 10.0 mi SSE 10.4 mph - N/A   Unknown
5:15 AM 51.8 °F 44.6 °F 76% 29.67 in 10.0 mi SSE 8.1 mph - N/A   Unknown
5:35 AM 51.8 °F 44.6 °F 76% 29.66 in 10.0 mi SSE 11.5 mph - N/A   Unknown
5:55 AM 51.8 °F 46.4 °F 82% 29.66 in 10.0 mi SSE 8.1 mph - N/A   Unknown
6:15 AM 51.8 °F 46.4 °F 82% 29.65 in 10.0 mi South 10.4 mph - N/A   Unknown
6:35 AM 51.8 °F 46.4 °F 82% 29.65 in 10.0 mi South 10.4 mph - N/A   Unknown
7:15 AM 51.8 °F 46.4 °F 82% 29.63 in 10.0 mi South 11.5 mph - N/A   Unknown
7:35 AM 51.8 °F 46.4 °F 82% 29.62 in 10.0 mi South 12.7 mph - N/A   Unknown
7:55 AM 53.6 °F 46.4 °F 77% 29.61 in 10.0 mi South 12.7 mph - N/A   Unknown
8:15 AM 53.6 °F 46.4 °F 77% 29.60 in 10.0 mi South 13.8 mph - N/A   Unknown
8:35 AM 55.4 °F 48.2 °F 77% 29.60 in 10.0 mi South 13.8 mph 20.7 mph N/A   Unknown
8:55 AM 55.4 °F 48.2 °F 77% 29.60 in 10.0 mi South 13.8 mph - N/A   Unknown
9:15 AM 57.2 °F 48.2 °F 72% 29.60 in 10.0 mi SSW 12.7 mph 20.7 mph N/A   Unknown
9:35 AM 60.8 °F 48.2 °F 63% 29.59 in 10.0 mi SSW 15.0 mph 20.7 mph N/A   Unknown
9:55 AM 60.8 °F 48.2 °F 63% 29.59 in 10.0 mi SW 12.7 mph 18.4 mph N/A   Unknown
10:15 AM 62.6 °F 48.2 °F 59% 29.58 in 10.0 mi SW 16.1 mph - N/A   Unknown
10:35 AM 64.4 °F 48.2 °F 56% 29.58 in 10.0 mi SW 16.1 mph - N/A   Unknown
11:15 AM 68.0 °F 48.2 °F 49% 29.56 in 10.0 mi SW 16.1 mph 24.2 mph N/A   Unknown
11:35 AM 69.8 °F 48.2 °F 46% 29.56 in 10.0 mi SW 19.6 mph - N/A   Unknown
11:55 AM 71.6 °F 48.2 °F 43% 29.56 in - SW 18.4 mph 23.0 mph N/A   Unknown
12:15 PM 71.6 °F 48.2 °F 43% 29.56 in 10.0 mi SW 18.4 mph 23.0 mph N/A   Clear
12:35 PM 71.6 °F 48.2 °F 43% 29.55 in 10.0 mi SW 19.6 mph 25.3 mph N/A   Clear
12:55 PM 71.6 °F 48.2 °F 43% 29.54 in 10.0 mi SSW 18.4 mph 24.2 mph N/A   Clear
1:15 PM 73.4 °F 46.4 °F 38% 29.53 in 10.0 mi SSW 19.6 mph 24.2 mph N/A   Clear
1:35 PM 69.8 °F 46.4 °F 43% 29.54 in 10.0 mi WSW 12.7 mph 23.0 mph N/A   Clear
1:55 PM 71.6 °F 46.4 °F 41% 29.53 in 10.0 mi WSW 16.1 mph 23.0 mph N/A   Clear
2:15 PM 71.6 °F 46.4 °F 41% 29.53 in 10.0 mi SW 17.3 mph 21.9 mph N/A   Clear
2:35 PM 71.6 °F 46.4 °F 41% 29.52 in 10.0 mi WSW 17.3 mph 24.2 mph N/A   Clear
2:55 PM 73.4 °F 46.4 °F 38% 29.52 in 10.0 mi SW 12.7 mph - N/A   Clear
3:15 PM 73.4 °F 46.4 °F 38% 29.52 in 10.0 mi WSW 16.1 mph 23.0 mph N/A   Clear
3:35 PM 73.4 °F 46.4 °F 38% 29.51 in 10.0 mi WSW 16.1 mph - N/A   Clear
5:15 PM - - N/A% 29.50 in - SW 13.8 mph - N/A   Unknown
5:35 PM 71.6 °F 46.4 °F 41% 29.49 in 10.0 mi SW 9.2 mph - N/A   Clear
5:55 PM 69.8 °F 48.2 °F 46% 29.49 in 10.0 mi SW 8.1 mph - N/A   Clear
6:15 PM 66.2 °F 48.2 °F 52% 29.49 in 10.0 mi SW 8.1 mph - N/A   Clear
6:35 PM 64.4 °F 48.2 °F 56% 29.49 in 10.0 mi SSW 8.1 mph - N/A   Clear
6:55 PM 60.8 °F 46.4 °F 59% 29.49 in 10.0 mi SSW 8.1 mph - N/A   Clear
7:15 PM 60.8 °F 46.4 °F 59% 29.50 in 10.0 mi SSW 8.1 mph - N/A   Clear
7:35 PM 60.8 °F 46.4 °F 59% 29.49 in 10.0 mi South 6.9 mph - N/A   Clear
7:55 PM 60.8 °F 46.4 °F 59% 29.50 in 10.0 mi South 5.8 mph - N/A   Clear
8:15 PM 57.2 °F 46.4 °F 67% 29.50 in 10.0 mi South 8.1 mph - N/A   Clear
8:35 PM 57.2 °F 46.4 °F 67% 29.50 in 10.0 mi SSW 9.2 mph - N/A   Clear
8:55 PM 57.2 °F 46.4 °F 67% 29.49 in 10.0 mi SSW 9.2 mph - N/A   Clear
9:15 PM 57.2 °F 46.4 °F 67% 29.49 in 10.0 mi South 9.2 mph - N/A   Clear
9:35 PM 57.2 °F 46.4 °F 67% 29.49 in 10.0 mi SSW 9.2 mph - N/A   Clear
9:55 PM 59.0 °F 46.4 °F 63% 29.49 in 10.0 mi SSW 9.2 mph - N/A   Clear
10:15 PM 60.8 °F 46.4 °F 59% 29.48 in 10.0 mi SSW 9.2 mph - N/A   Clear
10:35 PM 59.0 °F 46.4 °F 63% 29.48 in 10.0 mi SSW 9.2 mph - N/A   Clear
10:55 PM 59.0 °F 46.4 °F 63% 29.48 in 10.0 mi SSW 10.4 mph - N/A   Clear
11:15 PM 57.2 °F 46.4 °F 67% 29.47 in 10.0 mi South 9.2 mph - N/A   Clear
11:35 PM 59.0 °F 46.4 °F 63% 29.48 in 10.0 mi South 10.4 mph - N/A   Clear
11:55 PM 57.2 °F 46.4 °F 67% 29.47 in 10.0 mi South 10.4 mph - N/A   Clear